Weather History for KEZF - January, 2013

Change the Weather History Date:

Thursday, January 31, 2013

  Actual Average (KNYG) Record (KNYG)
Temperature  
Mean Temperature 51 °F -  
Max Temperature 67 °F 41 °F 62 °F (2012)
Min Temperature 34 °F 26 °F 10 °F (2004)
Degree Days  
Heating Degree Days 14    
Growing Degree Days 1 (Base 50)    
Moisture  
Dew Point 29 °F    
Average Humidity 48    
Maximum Humidity 95    
Minimum Humidity 28    
Precipitation  
Precipitation 0.56 in - - ()
Sea Level Pressure  
Sea Level Pressure 29.64 in    
Wind  
Wind Speed 17 mph (WSW)    
Max Wind Speed 29 mph    
Max Gust Speed 40 mph    
Visibility 10 miles    
Events Rain    
Averages and records for this station are not official NWS values.
T = Trace of Precipitation, MM = Missing Value Source: NWS Daily Summary

Daily Weather History Graph

Daily Weather History Graph

Search for Another Location

Airport or City:

Trip Planner

Search our weather history database for the weather conditions in past years. The results will help you decide how hot, cold, wet, or windy it might be!

Date:

Astronomy

Jan. 31, 2013 Rise Set
Actual Time 7:15 AM EST 5:31 PM EST
Civil Twilight 6:47 AM EST 5:59 PM EST
Nautical Twilight 6:15 AM EST 6:31 PM EST
Astronomical Twilight 5:44 AM EST 7:02 PM EST
Moon 10:26 PM EST (1/31) 9:18 AM EST (1/31)
Length of Visible Light 11h 12m
Length of Day
10h 16m
Waning Gibbous, 80% of the Moon is Illuminated
Jan 31
Waning Gibbous
Feb 3
Last Quarter
Feb 10
New
Feb 17
First Quarter
Feb 25
Full

Hourly Weather History & Observations

Time (EST) Temp. Windchill Dew Point Humidity Pressure Visibility Wind Dir Wind Speed Gust Speed Precip Events Conditions
12:15 AM 67.3 °F - 64.6 °F 91% 29.23 in 4.0 mi South 17.3 mph 32.2 mph 0.04 in Rain Rain
12:35 AM 66.9 °F - 65.3 °F 95% 29.23 in 1.5 mi SSW 28.8 mph 35.7 mph 0.40 in Rain Heavy Rain
12:55 AM 66.6 °F - 64.0 °F 92% 29.23 in 7.0 mi SW 21.9 mph 35.7 mph 0.43 in Rain Rain
1:15 AM 65.7 °F - 62.2 °F 89% 29.26 in 10.0 mi West 20.7 mph 35.7 mph 0.01 in Rain Light Rain
1:35 AM 62.8 °F - 59.0 °F 87% 29.28 in 10.0 mi West 19.6 mph 27.6 mph 0.05 in Rain Rain
1:55 AM 61.7 °F - 59.4 °F 92% 29.28 in 5.0 mi WSW 13.8 mph 20.7 mph 0.12 in Rain Heavy Rain
2:15 AM 61.3 °F - 57.9 °F 89% 29.27 in 10.0 mi WSW 12.7 mph 24.2 mph 0.01 in Rain Light Rain
2:35 AM 61.0 °F - 54.7 °F 80% 29.26 in 10.0 mi SW 19.6 mph 32.2 mph 0.01 in   Light Drizzle
2:55 AM 60.3 °F - 52.3 °F 75% 29.24 in 10.0 mi SW 16.1 mph 32.2 mph 0.01 in Rain Light Rain
3:15 AM 60.3 °F - 50.7 °F 71% 29.25 in 10.0 mi SW 23.0 mph 33.4 mph N/A   Mostly Cloudy
3:55 AM 59.4 °F - 48.9 °F 68% 29.27 in 10.0 mi WSW 15.0 mph 23.0 mph N/A   Unknown
4:15 AM 58.3 °F - 48.4 °F 70% 29.30 in 10.0 mi WSW 15.0 mph 20.7 mph N/A   Unknown
4:35 AM 58.1 °F - 48.2 °F 70% 29.31 in 10.0 mi WSW 16.1 mph 25.3 mph N/A   Scattered Clouds
4:55 AM 57.9 °F - 45.3 °F 63% 29.33 in 10.0 mi West 16.1 mph 28.8 mph N/A   Mostly Cloudy
5:15 AM 56.7 °F - 41.2 °F 56% 29.36 in 10.0 mi West 26.5 mph 32.2 mph N/A   Overcast
5:35 AM 55.4 °F - 36.3 °F 49% 29.39 in 10.0 mi West 17.3 mph 32.2 mph N/A   Overcast
5:55 AM 54.1 °F - 34.0 °F 47% 29.41 in 10.0 mi West 16.1 mph 28.8 mph N/A   Overcast
6:15 AM 53.2 °F - 34.3 °F 49% 29.43 in 10.0 mi West 18.4 mph 26.5 mph N/A   Mostly Cloudy
6:35 AM 52.2 °F - 32.2 °F 47% 29.46 in 10.0 mi West 16.1 mph 29.9 mph N/A   Unknown
6:55 AM 51.1 °F - 32.0 °F 48% 29.49 in 10.0 mi West 20.7 mph 27.6 mph N/A   Unknown
7:15 AM 49.6 °F - 29.8 °F 47% 29.51 in 10.0 mi West 15.0 mph 34.5 mph N/A   Unknown
7:35 AM 48.4 °F - 28.6 °F 46% 29.53 in 10.0 mi West 17.3 mph 27.6 mph N/A   Unknown
7:55 AM 48.4 °F - 28.8 °F 47% 29.55 in 10.0 mi WSW 17.3 mph 26.5 mph N/A   Mostly Cloudy
8:15 AM 48.0 °F - 28.9 °F 48% 29.57 in 10.0 mi West 18.4 mph 24.2 mph N/A   Scattered Clouds
8:35 AM 47.7 °F - 27.3 °F 45% 29.59 in 10.0 mi West 23.0 mph 32.2 mph N/A   Unknown
8:55 AM 47.5 °F - 25.3 °F 42% 29.61 in 10.0 mi West 21.9 mph 31.1 mph N/A   Unknown
9:15 AM 47.3 °F - 23.2 °F 39% 29.63 in 10.0 mi West 19.6 mph 35.7 mph N/A   Unknown
9:35 AM 47.3 °F - 23.9 °F 40% 29.65 in 10.0 mi West 15.0 mph 29.9 mph N/A   Clear
9:55 AM 47.5 °F - 23.0 °F 38% 29.65 in 10.0 mi West 25.3 mph 32.2 mph N/A   Clear
10:15 AM 48.2 °F - 23.0 °F 37% 29.67 in 10.0 mi West 19.6 mph 31.1 mph N/A   Clear
10:35 AM 48.4 °F - 23.4 °F 37% 29.67 in 10.0 mi West 19.6 mph 26.5 mph N/A   Clear
10:55 AM 49.5 °F - 23.5 °F 36% 29.68 in 10.0 mi West 13.8 mph 25.3 mph N/A   Unknown
11:15 AM 48.7 °F - 22.1 °F 35% 29.70 in 10.0 mi West 20.7 mph 31.1 mph N/A   Unknown
11:35 AM 49.3 °F - 20.8 °F 33% 29.70 in 10.0 mi West 19.6 mph 26.5 mph N/A   Clear
11:55 AM 48.2 °F - 21.0 °F 34% 29.70 in 10.0 mi WSW 16.1 mph 31.1 mph N/A   Unknown
12:15 PM 49.1 °F - 22.8 °F 36% 29.70 in 10.0 mi WSW 20.7 mph 32.2 mph N/A   Unknown
12:35 PM 48.4 °F - 22.3 °F 36% 29.71 in 10.0 mi WSW 15.0 mph 27.6 mph N/A   Scattered Clouds
12:55 PM 48.6 °F - 19.0 °F 31% 29.71 in 10.0 mi West 23.0 mph 34.5 mph N/A   Mostly Cloudy
1:15 PM 49.8 °F - 21.7 °F 33% 29.70 in 10.0 mi West 19.6 mph 25.3 mph N/A   Scattered Clouds
1:35 PM 47.8 °F - 20.8 °F 34% 29.70 in 10.0 mi West 15.0 mph 21.9 mph N/A   Scattered Clouds
1:55 PM 49.6 °F - 20.7 °F 32% 29.71 in 10.0 mi WSW 19.6 mph 32.2 mph N/A   Scattered Clouds
2:15 PM 48.0 °F - 15.8 °F 28% 29.73 in 10.0 mi West 28.8 mph 40.3 mph N/A   Unknown
2:35 PM 48.2 °F - 17.2 °F 29% 29.74 in 10.0 mi WNW 21.9 mph 31.1 mph N/A   Unknown
2:55 PM 46.9 °F - 17.8 °F 31% 29.75 in 10.0 mi West 17.3 mph 28.8 mph N/A   Scattered Clouds
3:15 PM 45.9 °F 38.0 °F 18.5 °F 34% 29.76 in 10.0 mi West 20.7 mph 28.8 mph N/A   Mostly Cloudy
3:35 PM 45.3 °F 38.7 °F 19.6 °F 36% 29.77 in 10.0 mi West 15.0 mph 27.6 mph N/A   Mostly Cloudy
3:55 PM 44.8 °F 37.7 °F 19.4 °F 36% 29.78 in 10.0 mi West 16.1 mph 29.9 mph N/A   Scattered Clouds
4:15 PM 45.3 °F 36.9 °F 19.0 °F 35% 29.79 in 10.0 mi West 23.0 mph 27.6 mph N/A   Mostly Cloudy
4:35 PM 44.8 °F 37.4 °F 16.9 °F 33% 29.81 in 10.0 mi West 17.3 mph 27.6 mph N/A   Unknown
4:55 PM 44.2 °F 37.3 °F 17.1 °F 34% 29.81 in 10.0 mi West 15.0 mph 27.6 mph N/A   Mostly Cloudy
5:15 PM 43.3 °F 34.7 °F 16.0 °F 33% 29.83 in 10.0 mi WSW 20.7 mph 32.2 mph N/A   Overcast
5:35 PM 42.3 °F 33.6 °F 14.0 °F 32% 29.85 in 10.0 mi West 19.6 mph 32.2 mph N/A   Unknown
5:55 PM 41.7 °F 33.7 °F 14.4 °F 33% 29.86 in 10.0 mi West 16.1 mph 26.5 mph N/A   Unknown
6:15 PM 41.0 °F 34.3 °F 15.6 °F 36% 29.87 in 10.0 mi West 11.5 mph 17.3 mph N/A   Unknown
6:35 PM 40.5 °F 34.6 °F 16.0 °F 37% 29.88 in 10.0 mi West 9.2 mph - N/A   Unknown
6:55 PM 40.3 °F 34.9 °F 16.5 °F 38% 29.89 in 10.0 mi West 8.1 mph - N/A   Unknown
7:15 PM 40.1 °F 34.1 °F 16.5 °F 39% 29.90 in 10.0 mi West 9.2 mph - N/A   Mostly Cloudy
7:35 PM 40.1 °F 36.9 °F 16.7 °F 39% 29.90 in 10.0 mi West 4.6 mph - N/A   Overcast
7:55 PM 39.2 °F 35.0 °F 16.7 °F 40% 29.91 in 10.0 mi West 5.8 mph - N/A   Unknown
8:15 PM 38.8 °F 34.6 °F 17.4 °F 42% 29.91 in 10.0 mi West 5.8 mph - N/A   Unknown
8:35 PM 38.5 °F 33.4 °F 17.4 °F 43% 29.91 in 10.0 mi West 6.9 mph - N/A   Unknown
9:15 PM 37.8 °F 32.5 °F 16.9 °F 43% 29.91 in 10.0 mi WSW 6.9 mph - N/A   Unknown
9:35 PM 37.6 °F 33.1 °F 16.2 °F 42% 29.91 in 10.0 mi West 5.8 mph - N/A   Unknown
9:55 PM 36.9 °F 33.1 °F 16.7 °F 44% 29.92 in 10.0 mi WSW 4.6 mph - N/A   Unknown
10:15 PM 36.0 °F 32.1 °F 17.6 °F 47% 29.93 in 10.0 mi WSW 4.6 mph - N/A   Unknown
10:35 PM 35.1 °F 30.1 °F 19.2 °F 53% 29.94 in 10.0 mi WSW 5.8 mph - N/A   Clear
11:15 PM 35.2 °F 31.2 °F 18.5 °F 51% 29.94 in 10.0 mi West 4.6 mph - N/A   Unknown
11:35 PM 35.1 °F 32.2 °F 18.9 °F 52% 29.94 in 10.0 mi SW 3.5 mph - N/A   Unknown
11:55 PM 34.2 °F 30.0 °F 20.8 °F 58% 29.93 in 10.0 mi SSW 4.6 mph - N/A   Unknown